Regional Weather Roundup
Issued by NWS

Home | Current Version | Previous Version | Text Only | Print | Product List | Glossary Off
Versions: 1 2 3 4 5 6 7 8 9 10 11 12 13 14 15 16 17 18 19 20 21 22 23 24 25 26 27 28 29 30 31 32 33 34 35 36 37 38 39 40 41 42 43 44 45 46 47 48 49 50

980
ASUS43 KDTX 062301
RWRMI
MICHIGAN HOURLY REGIONAL WEATHER ROUNDUP
NATIONAL WEATHER SERVICE DETROIT/PONTIAC MI
600 PM EST SAT FEB 06 2016

NOTE: "FAIR" INDICATES FEW OR NO CLOUDS BELOW 12,000 FEET WITH NO
SIGNIFICANT WEATHER AND/OR OBSTRUCTION TO VISIBILITY.

MIZ047>049-052>055-059>063-066>070-074>076-081>083-070000-
SOUTHEAST LOWER MICHIGAN

CITY           SKY/WX    TMP DP  RH WIND       PRES   REMARKS
ADRIAN         CLEAR     33  23  66 SW6       30.18S WCI  28
ALMA           CLOUDY    33  27  77 SW8       30.14S WCI  27
ANN ARBOR      MOCLDY    35  23  61 SW8       30.16S WCI  29
BAD AXE        CLOUDY    35  20  55 W15G21    30.12R WCI  25
CARO           CLOUDY    33  20  59 W12G18    30.13R WCI  24
DETROIT CITY   CLOUDY    35  22  58 SW12      30.17R WCI  27
DETROIT        MOCLDY    34  24  67 S12       30.19R WCI  25
FLINT          MOCLDY    36  20  52 SW9       30.15R WCI  29
GROSSE ILE     PTCLDY    34  27  75 SW3       30.17R
HILLSDALE      CLEAR     33  20  57 SW7       30.16S WCI  27
HOWELL         PTCLDY    33  19  57 SW9       30.15S WCI  25

CITY           SKY/WX    TMP DP  RH WIND       PRES   REMARKS
JACKSON        CLOUDY    34  20  56 SW7       30.15S WCI  28
LAMBERTVILLE   CLEAR     34  23  62 SW3       30.19F
LANSING        CLOUDY    34  19  54 SW9       30.16S WCI  27
LAPEER         CLOUDY    35  20  55 W7        30.13S WCI  29
MASON          CLOUDY    33  22  63 SW6       30.15S WCI  27
MONROE         CLEAR     35  24  66 SW7       30.18S WCI  29
MT. CLEMENS    MOCLDY    36  23  59 SW14      30.14S WCI  27
PONTIAC        MOCLDY    36  18  48 SW9       30.13R WCI  29
PORT HOPE        N/A     34  23  64 W9        30.10R WCI  27
PORT HURON     CLOUDY    34  27  75 S10       30.15S WCI  26
TRI CITIES     CLOUDY    35  24  64 SW12      30.14R WCI  27
MIDLAND        CLOUDY    34  23  63 SW9       30.12S WCI  27
TROY           CLEAR     37  24  60 SW8       30.17S WCI  30
SAGINAW HB     MOCLDY    34  27  75 SW8G17    30.13S WCI  27
$$
MIZ043>046-050>051-056>058-064>065-071>073-077>080-070000-
SOUTHWEST LOWER MICHIGAN

CITY           SKY/WX    TMP DP  RH WIND       PRES   REMARKS
BATTLE CREEK   CLOUDY    34  22  61 SW8       30.15F WCI  27
BENTON HARBOR  CLOUDY    37  27  67 SW8       30.16F WCI  31
BIG RAPIDS     CLOUDY    32  28  86 W7        30.10S WCI  26
COLDWATER      MOCLDY    34  25  68 SW6       30.16F WCI  29
FREMONT        CLOUDY    32  28  85 SW6       30.12S WCI  27
HOLLAND        CLOUDY    35  28  75 SW10      30.15F WCI  27
GRAND RAPIDS   CLOUDY    33  26  75 SW9       30.14F WCI  25
IONIA          CLOUDY    32  26  77 SW10      30.14S WCI  24
KALAMAZOO      CLOUDY    36  24  62 SW6       30.16F WCI  31
LUDINGTON      CLOUDY    32  28  83 SW8       30.11S WCI  25
MARSHALL       CLOUDY    34  21  58 SW7       30.15F WCI  28
MOUNT PLEASANT CLOUDY    33  26  72 SW9       30.12R WCI  26
MUSKEGON       CLOUDY    35  27  72 SW8       30.14R WCI  29
SOUTH HAVEN    CLOUDY    36  28  74 SW8       30.16S WCI  29
$$
MIZ016>042-070000-
NORTHERN LOWER MICHIGAN

CITY           SKY/WX    TMP DP  RH WIND       PRES   REMARKS
ALPENA         CLOUDY    31  23  72 W9        30.08R WCI  23
BEAVER ISLAND  CLOUDY    29  24  80 SW12      30.04F WCI  20
BELLAIRE       CLOUDY    31  26  80 SW3       30.09S
CADILLAC       CLOUDY    29  26  86 SW9       30.06S WCI  21
CHARLEVOIX     CLOUDY    30  25  80 SW8       30.09S WCI  23
FRANKFORT      CLOUDY    32  26  78 W6        30.09S WCI  26
GAYLORD        CLOUDY    27  24  89 SW12      30.04S FOG     WCI  17
GRAYLING       CLOUDY    29  25  83 W5        30.07S WCI  24
HARBOR SPRINGS CLOUDY    30  24  80 SW10G17   30.05F WCI  21
HOUGHTON LAKE  CLOUDY    30  24  78 SW7       30.08R WCI  23
MANISTEE       CLOUDY    32  23  69 SW6       30.10S WCI  26
OSCODA         CLOUDY    33  24  69 W5        30.09R WCI  28
PELLSTON       CLOUDY    29  22  75 W8        30.05F WCI  21
ROGERS CITY    CLOUDY    30  22  73 SW8       30.08R WCI  22
TRAVERSE CITY  CLOUDY    32  23  69 SW8       30.07S WCI  25
$$
MIZ007>008-015-070000-
EASTERN UPPER MICHIGAN

CITY           SKY/WX    TMP DP  RH WIND       PRES   REMARKS
KINROSS        CLOUDY    28  25  86 SW6       30.02R WCI  22
MACKINAC ISLAN CLOUDY    28  21  75 SW10G16   30.04S WCI  19
NEWBERRY       CLOUDY    28  21  74 S8        29.99F WCI  20
S. S. MARIE    LGT SNOW  28  22  78 SW3       30.01S
$$
MIZ004>006-011>014-085-070000-
CENTRAL UPPER MICHIGAN

CITY           SKY/WX    TMP DP  RH WIND       PRES   REMARKS
MANISTIQUE     CLOUDY    28  22  77 SW10      30.02S WCI  19
ESCANABA       CLOUDY    30  21  69 SW8       30.02F WCI  23
MENOMINEE      CLOUDY    30  23  74 SW7       30.04S WCI  23
SAWYER-GWINN   CLOUDY    28  19  69 S10       29.95F WCI  19
$$
MIZ001>003-009>011-084-070000-
WESTERN UPPER MICHIGAN

CITY           SKY/WX    TMP DP  RH WIND       PRES   REMARKS
IRON MOUNTAIN  CLOUDY    30  20  66 S9        29.95F HAZE    WCI  22
HOUGHTON       CLOUDY    28  19  69 SE7       29.89F WCI  21
COPPER HARBOR    N/A     28  24  85 CALM      29.92F
IRONWOOD       CLOUDY    34  23  64 S10G20    29.82F WCI  26
$$

ABBREVIATIONS USED IN REMARKS
   TC - TEMPERATURE IN CELSIUS
  WCI - WIND CHILL INDEX
   HX - HEAT INDEX
  VSB - VISIBILITY





USA.gov is the U.S. government's official web portal to all federal, state and local government web resources and services.